Вернуться в каталог

THOR DELTA 1 DEB

АктивенPO
NORAD 33515·DEBRIS·🇺🇸 United States

Запущен Apr 1, 1971 с Vandenberg Space Force Base

Loading…

Ближайшие Пролёты (ближайшие 24 часа)

TLE

УстаревающийSource: Space-Track

Эпоха: Sep 9, 2026, 16:14 UTC

1 33515U 71024F   26252.67701598  .00000596  00000-0  22640-2 0  9997
2 33515  88.1404 215.7549 0037714  23.9089  98.2385 12.88952355261428

Отслеживайте THOR DELTA 1 DEB в реальном времени с AllMySat

Download on the App Store